Miscellaneous Hydrologic Data Report
Issued by NWS (Baltimore/Washington) Sterling, VA
1 of 27 available versions  First Miscellaneous Hydrologic Data Report Previous Miscellaneous Hydrologic Data Report  Print this page Close this Window


000
ASUS41 KLWX 280810
RWRLWX

REGIONAL WEATHER ROUNDUP
NATIONAL WEATHER SERVICE BALTIMORE MD/WASHINGTON DC
400 AM EDT WED SEP 28 2016

Note: "FAIR" indicates few or no clouds below 12,000 feet
with no significant weather and/or obstructions to visibility.
 TC=TEMPERATURE CELSIUS

 * =Non NWS site. Station does not report precipitation (e.g. rain,
    snow, etc.), thunder, or fog.

DCZ001-MDZ009-015-VAZ040>042-051-053>054-280900-
WASHINGTON METRO

CITY           SKY/WX    TMP DP  RH WIND       PRES   REMARKS
WASHINGTON NAT CLOUDY    65  64  97 NE6       29.96S
DULLES         CLOUDY    64  62  93 NE3       29.96S
ANDREWS AFB    CLOUDY    64  63  97 E5        29.95S FOG
FT BELVOIR     FOG       64  63  94 VRB1      29.95S VSB 3/4
QUANTICO       CLOUDY    67  65  93 E9        29.94F
COLLEGE PARK*  CLOUDY    59  57  94 N3        29.96S
LEESBURG*      CLOUDY    63  63 100 N3        29.97S FOG
MANASSAS*      CLOUDY    64  64 100 N3        29.95S VSB 1/2
GAITHERSBURG*  PTCLDY    57  54  88 CALM      30.01R

$$

MDZ006>007-011-014-280900-
BALTIMORE METRO

CITY           SKY/WX    TMP DP  RH WIND       PRES   REMARKS
BWI AIRPORT    CLOUDY    57  56  96 CALM      29.97S
MD SCIENCE CTR   N/A     64  61  90 MISG      29.98R
ANNAPOLIS      CLOUDY    67  65  93 NE5       29.96S FOG
FORT MEADE*    MOCLDY    54  54 100 CALM      29.99S

$$

MDZ012-015-019>023-280900-
MARYLAND EASTERN SHORE

CITY           SKY/WX    TMP DP  RH WIND       PRES   REMARKS
OCEAN CITY     CLOUDY    70  68  93 N5        29.95F
SALISBURY      MOCLDY    66  65  96 NE3       29.95F FOG
BAY BRIDGE AP* MOCLDY    61  61 100 MISG      29.97S FOG
CAMBRIDGE*     CLOUDY    61  61 100 NE3       29.95S

$$

MDZ017>025-280900-
SOUTHERN MARYLAND

CITY           SKY/WX    TMP DP  RH WIND       PRES   REMARKS
PATUXENT RIVER PTCLDY    67  66  97 E3        29.94S
ST INIGOES     PTCLDY    69  68  96 NE6       29.93S FOG
LEONARDTOWN*   CLOUDY    64  64 100 CALM      29.96S

$$

MDZ003>005-280900-
NORTH CENTRAL MARYLAND

CITY           SKY/WX    TMP DP  RH WIND       PRES   REMARKS
FREDERICK*     NOT AVBL
HAGERSTOWN APT CLOUDY    59  51  75 NE3       29.98R

$$

MDZ501>502-280900-
WESTERN MARYLAND

CITY           SKY/WX    TMP DP  RH WIND       PRES   REMARKS
OAKLAND*       CLEAR     50  36  57 SE3       30.00S
CUMBERLAND*    CLEAR     50  45  81 CALM      30.02R

$$

VAZ025>031-280900-
SHENANDOAH VALLEY

CITY           SKY/WX    TMP DP  RH WIND       PRES   REMARKS
WINCHESTER*    CLOUDY    59  55  88 CALM      29.95F
FRONT ROYAL*   CLOUDY    55  55 100 CALM      29.94S
LURAY*         CLOUDY   N/A N/A N/A CALM      29.95F
NEW MARKET*    CLOUDY   N/A N/A N/A CALM      29.95S
STAUNTON*      CLOUDY    58  55  88 CALM      29.97S
WAYNESBORO*    CLOUDY    61  57  87 CALM      29.96S

$$

WVZ021-048>050-054>055-280900-
EASTERN WEST VIRGINIA PANHANDLE

CITY           SKY/WX    TMP DP  RH WIND       PRES   REMARKS
MARTINSBURG    CLOUDY    57  54  89 N3        29.96S
PETERSBURG*    CLEAR     43  41  91 CALM      29.98S

$$

VAZ036>039-050-280900-
CENTRAL FOOTHILLS

CITY           SKY/WX    TMP DP  RH WIND       PRES   REMARKS
CHARLOTTESVILL CLOUDY    67  65  93 NE8       29.93S FOG
CULPEPER*      DRIZZLE   64  64 100 CALM      29.95S
ORANGE*          N/A     66  66 100 CALM      29.94F FOG
GORDONSVILLE*  NOT AVBL
WARRENTON*     LGT RAIN  64  59  86 N5        29.94S

$$

VAZ055>057-280900-
NORTH AND CENTRAL PIEDMONT

CITY           SKY/WX    TMP DP  RH WIND       PRES   REMARKS
FREDERICKSBRG* RAIN      66  66 100 E3        29.92F
STAFFORD*      CLOUDY    65  65 100 NE5       29.97F FOG

$$

NCZ024-NYZ072-PAZ021-071-VAZ022-071-280900-
OTHER REGIONAL OBSERVATIONS

CITY           SKY/WX    TMP DP  RH WIND       PRES   REMARKS
NEW YORK CITY  CLEAR     62  60  93 NE3       30.04R FOG
PHILADELPHIA   PTCLDY    59  57  93 CALM      30.01R
PITTSBURGH     CLEAR     51  44  77 SE5       29.93R
ROANOKE        MOCLDY    61  59  93 W3        29.95F
RICHMOND       FOG       67  67 100 E6        29.92S VSB 1/2
RALEIGH        CLOUDY    70  68  93 CALM      29.91F

$$

ANZ530>537-280900-
MARINE OBSERVATIONS

STATION/POSITION TIME  TEMP    WIND        PRES
                       AIR SEA DIR/SP/G
                 (UTC) (F)     (DEG/KT/KT) (MB)
THOMAS PT LIGHT  0800   67 74   80/  8/  9 1015.8F
BALT KEY BRIDGE  0748   63      40/  7/  7 1014.8R
COVE POINT       0748   66     100/  8/ 11 1014.6F
LEWISETTA        0748   72 74   70/ 10/ 12 1013.1F
SOLOMONS ISLAND  0748   69 75   70/  4/  5   N/A
PINEY POINT      0748           80/  6/  8   N/A

$$



Close this window


The National Weather Service prepares its forecasts and other services in collaboration with agencies like the US Geological Survey, US Bureau of Reclamation, US Army Corps of Engineers, Natural Resource Conservation Service, National Park Service, ALERT Users Group, Bureau of Indian Affairs, and many state and local emergency managers across the country. For details, please click here.

National Weather Service
(Baltimore/Washington) Sterling Weather Forecast Office
43858 Weather Service Rd.
Sterling, VA 20166
(703) 996-2200
Page last modified: 28-Sep-2016 8:10 AM
Disclaimer
Credits
Glossary
Privacy Policy
About Us
Career Opportunities